Russellville, AR

4:04 AM CDT on October 17, 2019 (GMT -0500)
Russellville Regional

Weather History for KRUE - August, 2019

Change the Weather History Date:

Saturday, August 3, 2019

  Actual Average (WUND) Record (WUND)
Temperature  
Mean Temperature 78 °F -  
Max Temperature 84 °F - - (-1)
Min Temperature 73 °F - - (-1)
Cooling Degree Days 14    
Growing Degree Days 28 (Base 50)    
Moisture  
Dew Point 70 °F    
Average Humidity 78    
Maximum Humidity 93    
Minimum Humidity 61    
Precipitation  
Precipitation 0.00 in - - ()
Sea Level Pressure  
Sea Level Pressure 29.96 in    
Wind  
Wind Speed 2 mph (ENE)    
Max Wind Speed 9 mph    
Max Gust Speed -    
Visibility 10 miles    
Events      
Averages and records for this station are not official NWS values.
T = Trace of Precipitation, MM = Missing Value Source: NWS Daily Summary

Daily Weather History Graph

Daily Weather History Graph

Search for Another Location

Airport or City:

Astronomy

Aug. 03, 2019 Rise Set
Actual Time 6:22 AM CDT 8:13 PM CDT
Civil Twilight 5:54 AM CDT 8:41 PM CDT
Nautical Twilight 5:21 AM CDT 9:15 PM CDT
Astronomical Twilight 4:45 AM CDT 9:50 PM CDT
Moon 9:11 AM CDT (8/3) 10:26 PM CDT (8/3)
Length of Visible Light 14h 46m
Length of Day
13h 51m
Waxing Crescent, 10% of the Moon is Illuminated
Aug 3
Waxing Crescent
Aug 7
First Quarter
Aug 15
Full
Aug 23
Last Quarter
Aug 30
New

Hourly Weather History & Observations

Time (CDT) Temp. Heat Index Dew Point Humidity Pressure Visibility Wind Dir Wind Speed Gust Speed Precip Events Conditions
12:53 AM 78.1 °F - 69.1 °F 74% 29.98 in 10.0 mi East 4.6 mph - N/A   Overcast
1:53 AM 78.1 °F - 68.0 °F 71% 29.97 in 10.0 mi East 3.5 mph - N/A   Overcast
2:53 AM 75.9 °F - 70.0 °F 82% 29.97 in 10.0 mi Calm Calm - N/A   Overcast
3:53 AM 75.9 °F - 71.1 °F 85% 29.97 in 10.0 mi Calm Calm - N/A   Overcast
4:53 AM 75.0 °F - 70.0 °F 84% 29.96 in 10.0 mi Calm Calm - N/A   Overcast
5:53 AM 73.0 °F - 70.0 °F 90% 29.96 in 10.0 mi Calm Calm - N/A   Partly Cloudy
6:53 AM 73.0 °F - 70.0 °F 90% 29.97 in 8.0 mi Calm Calm - N/A   Mostly Cloudy
7:53 AM 75.0 °F - 71.1 °F 87% 29.98 in 9.0 mi Calm Calm - N/A   Overcast
8:53 AM 75.9 °F - 70.0 °F 82% 29.99 in 10.0 mi Calm Calm - N/A   Overcast
9:53 AM 75.9 °F - 68.0 °F 76% 29.99 in 10.0 mi Calm Calm - N/A   Overcast
10:53 AM 77.0 °F - 68.0 °F 74% 29.99 in 10.0 mi ESE 3.5 mph - N/A   Overcast
11:53 AM 78.1 °F - 69.1 °F 74% 29.99 in 10.0 mi East 3.5 mph - N/A   Overcast
12:53 PM 79.0 °F - 69.1 °F 72% 29.98 in 10.0 mi ESE 3.5 mph - N/A   Overcast
1:53 PM 82.0 °F 85.5 °F 69.1 °F 65% 29.96 in 10.0 mi Calm Calm - N/A   Mostly Cloudy
2:53 PM 84.0 °F 87.8 °F 69.1 °F 61% 29.95 in 10.0 mi Calm Calm - N/A   Mostly Cloudy
3:53 PM 84.0 °F 88.4 °F 70.0 °F 63% 29.93 in 10.0 mi Calm Calm - N/A   Mostly Cloudy
4:53 PM 81.0 °F 84.9 °F 71.1 °F 72% 29.93 in 10.0 mi West 9.2 mph - N/A   Overcast
5:53 PM 81.0 °F 84.9 °F 71.1 °F 72% 29.92 in 10.0 mi Calm Calm - N/A   Overcast
6:53 PM 81.0 °F 84.9 °F 71.1 °F 72% 29.91 in 10.0 mi NW 5.8 mph - N/A   Mostly Cloudy
7:53 PM 80.1 °F 83.6 °F 71.1 °F 74% 29.90 in 10.0 mi NNW 3.5 mph - N/A   Mostly Cloudy
8:53 PM 75.9 °F - 72.0 °F 87% 29.92 in 10.0 mi Calm Calm - N/A   Partly Cloudy
9:53 PM 75.0 °F - 72.0 °F 90% 29.94 in 8.0 mi Calm Calm - N/A   Partly Cloudy
10:53 PM 73.9 °F - 72.0 °F 93% 29.95 in 7.0 mi Calm Calm - N/A   Clear
11:53 PM 73.9 °F - 71.1 °F 91% 29.96 in 5.0 mi Calm Calm - N/A   Clear